{"data":{"norad_id":87334,"epoch":"2026-05-24T01:28:41.318112Z","epoch_age_seconds":155500,"freshness":"FRESH","line1":"1 87334U          26144.06158933  .00012788  00000+0  66871-2 0  9992","line2":"2 87334  89.9956 271.7439 0068393  96.4922 264.4058 14.13075861409522","mean_motion":14.13075861,"eccentricity":0.0068393,"inclination_deg":89.9956,"raan_deg":271.7439,"arg_perigee_deg":96.4922,"mean_anomaly_deg":264.4058,"bstar":0.0066871,"rev_number":40952,"period_min":101.90535694106,"perigee_km":799.43760813336,"apogee_km":898.29288103614,"semimajor_km":7227.0022445847,"source":"CELESTRAK","updated_at":"2026-05-25T13:38:11.668922Z"}}